| time (UTC) | temp F | wind direction | speed knots | gust knots | rain 1hr in | rain 24hr in | rain mn in | humidity % | barometer mb |
| 20260831220432 | 63 | 268 | 7.8 | 13.9 | 0.00 | 0.00 | 0.00 | 78 | 1014.0 |
| 20260831215945 | 63 | 277 | 7.0 | 13.0 | 0.00 | 0.00 | 0.00 | 78 | 1014.0 |
| 20260831215432 | 63 | 283 | 7.8 | 13.0 | 0.00 | 0.00 | 0.00 | 78 | 1014.2 |
| 20260831214935 | 63 | 244 | 7.0 | 12.2 | 0.00 | 0.00 | 0.00 | 78 | 1014.3 |
| 20260831214418 | 63 | 282 | 6.1 | 12.2 | 0.00 | 0.00 | 0.00 | 78 | 1014.3 |
| 20260831213942 | 63 | 211 | 7.8 | 12.2 | 0.00 | 0.00 | 0.00 | 77 | 1014.3 |
| 20260831213425 | 63 | 210 | 4.3 | 12.2 | 0.00 | 0.00 | 0.00 | 78 | 1014.4 |
| 20260831212931 | 63 | 282 | 3.5 | 11.3 | 0.00 | 0.00 | 0.00 | 78 | 1014.4 |
| 20260831212436 | 63 | 216 | 5.2 | 11.3 | 0.00 | 0.00 | 0.00 | 78 | 1014.3 |
| 20260831211942 | 62 | 279 | 5.2 | 13.9 | 0.00 | 0.00 | 0.00 | 78 | 1014.5 |
| 20260831211423 | 63 | 247 | 7.0 | 13.9 | 0.00 | 0.00 | 0.00 | 78 | 1014.6 |
| 20260831210927 | 63 | 280 | 6.1 | 14.8 | 0.00 | 0.00 | 0.00 | 78 | 1014.6 |
| 20260831210431 | 63 | 257 | 5.2 | 14.8 | 0.00 | 0.00 | 0.00 | 77 | 1014.7 |
| 20260831205937 | 63 | 235 | 7.0 | 10.4 | 0.00 | 0.00 | 0.00 | 77 | 1014.8 |
| 20260831205421 | 63 | 275 | 3.5 | 11.3 | 0.00 | 0.00 | 0.00 | 78 | 1014.7 |
| 20260831204956 | 63 | 282 | 6.1 | 12.2 | 0.00 | 0.00 | 0.00 | 78 | 1014.6 |
| 20260831204419 | 63 | 218 | 6.1 | 12.2 | 0.00 | 0.00 | 0.00 | 78 | 1014.7 |
| 20260831203925 | 63 | 292 | 2.6 | 13.9 | 0.00 | 0.00 | 0.00 | 79 | 1014.6 |
| 20260831203423 | 62 | 242 | 6.1 | 13.9 | 0.00 | 0.00 | 0.00 | 78 | 1014.7 |
| 20260831202957 | 62 | 302 | 2.6 | 11.3 | 0.00 | 0.00 | 0.00 | 79 | 1014.6 |
| 20260831202422 | 62 | 275 | 5.2 | 12.2 | 0.00 | 0.00 | 0.00 | 79 | 1014.6 |
| 20260831201946 | 62 | 290 | 7.8 | 12.2 | 0.00 | 0.00 | 0.00 | 78 | 1014.5 |
| 20260831201429 | 62 | 276 | 5.2 | 10.4 | 0.00 | 0.00 | 0.00 | 79 | 1014.6 |
| 20260831200932 | 62 | 295 | 6.1 | 11.3 | 0.00 | 0.00 | 0.00 | 79 | 1014.6 |
| 20260831200433 | 62 | 232 | 4.3 | 11.3 | 0.00 | 0.00 | 0.00 | 79 | 1014.6 |
| 20260831195935 | 62 | 290 | 6.1 | 13.9 | 0.00 | 0.00 | 0.00 | 79 | 1014.6 |
| 20260831195420 | 62 | 299 | 5.2 | 11.3 | 0.00 | 0.00 | 0.00 | 79 | 1014.5 |
| 20260831194923 | 62 | 283 | 5.2 | 15.6 | 0.00 | 0.00 | 0.00 | 80 | 1014.5 |
| 20260831194429 | 62 | 280 | 6.1 | 15.6 | 0.00 | 0.00 | 0.00 | 79 | 1014.6 |
| 20260831193935 | 62 | 265 | 4.3 | 9.6 | 0.00 | 0.00 | 0.00 | 79 | 1014.7 |
| 20260831193436 | 62 | 247 | 3.5 | 10.4 | 0.00 | 0.00 | 0.00 | 80 | 1014.7 |
| 20260831192935 | 62 | 226 | 3.5 | 12.2 | 0.00 | 0.00 | 0.00 | 80 | 1014.7 |
| 20260831192421 | 61 | 270 | 6.1 | 13.0 | 0.00 | 0.00 | 0.00 | 80 | 1014.8 |
| 20260831191926 | 62 | 225 | 7.0 | 13.0 | 0.00 | 0.00 | 0.00 | 80 | 1014.8 |
| 20260831191433 | 62 | 345 | 3.5 | 9.6 | 0.00 | 0.00 | 0.00 | 80 | 1014.8 |
| 20260831190918 | 61 | 209 | 3.5 | 9.6 | 0.00 | 0.00 | 0.00 | 81 | 1014.7 |
| 20260831190425 | 61 | 62 | 4.3 | 8.7 | 0.00 | 0.00 | 0.00 | 80 | 1014.6 |
| 20260831185941 | 61 | 268 | 4.3 | 9.6 | 0.00 | 0.00 | 0.00 | 81 | 1014.7 |
| 20260831185452 | 61 | 273 | 6.1 | 9.6 | 0.00 | 0.00 | 0.00 | 81 | 1014.8 |
| 20260831184936 | 61 | 222 | 2.6 | 13.0 | 0.00 | 0.00 | 0.00 | 82 | 1014.8 |
| 20260831184441 | 61 | 228 | 5.2 | 13.0 | 0.00 | 0.00 | 0.00 | 81 | 1014.9 |
| 20260831183946 | 61 | 203 | 5.2 | 13.9 | 0.00 | 0.00 | 0.00 | 81 | 1014.9 |
| 20260831183426 | 61 | 232 | 5.2 | 14.8 | 0.00 | 0.00 | 0.00 | 82 | 1014.9 |
| 20260831182929 | 61 | 275 | 2.6 | 11.3 | 0.00 | 0.00 | 0.00 | 82 | 1014.9 |
| 20260831182431 | 61 | 306 | 3.5 | 7.8 | 0.00 | 0.00 | 0.00 | 82 | 1014.8 |
| 20260831181930 | 60 | 268 | 3.5 | 8.7 | 0.00 | 0.00 | 0.00 | 83 | 1014.8 |
| 20260831181437 | 60 | 284 | 4.3 | 10.4 | 0.00 | 0.00 | 0.00 | 83 | 1014.7 |
| 20260831180920 | 60 | 237 | 3.5 | 10.4 | 0.00 | 0.00 | 0.00 | 83 | 1014.8 |
| 20260831180425 | 60 | 259 | 1.7 | 11.3 | 0.00 | 0.00 | 0.00 | 84 | 1014.8 |
| 20260831175930 | 60 | 263 | 4.3 | 7.8 | 0.00 | 0.00 | 0.00 | 84 | 1014.8 |
| 20260831175435 | 59 | 217 | 2.6 | 8.7 | 0.00 | 0.00 | 0.00 | 84 | 1014.8 |
| 20260831174936 | 59 | 213 | 3.5 | 9.6 | 0.00 | 0.00 | 0.00 | 84 | 1014.9 |
| 20260831174437 | 59 | 235 | 3.5 | 9.6 | 0.00 | 0.00 | 0.00 | 85 | 1014.8 |
| 20260831173921 | 59 | 232 | 1.7 | 9.6 | 0.00 | 0.00 | 0.00 | 85 | 1014.7 |
| 20260831173424 | 59 | 218 | 5.2 | 11.3 | 0.00 | 0.00 | 0.00 | 85 | 1014.6 |
| 20260831172928 | 59 | 285 | 5.2 | 12.2 | 0.00 | 0.00 | 0.00 | 85 | 1014.7 |
| 20260831172433 | 59 | 273 | 7.0 | 12.2 | 0.00 | 0.00 | 0.00 | 85 | 1014.7 |
| 20260831171918 | 59 | 230 | 2.6 | 8.7 | 0.00 | 0.00 | 0.00 | 85 | 1014.7 |
| 20260831171418 | 59 | 268 | 1.7 | 8.7 | 0.00 | 0.00 | 0.00 | 85 | 1014.6 |
| 20260831170921 | 59 | 297 | 2.6 | 12.2 | 0.00 | 0.00 | 0.00 | 85 | 1014.6 |
| 20260831170427 | 58 | 335 | 5.2 | 12.2 | 0.00 | 0.00 | 0.00 | 85 | 1014.5 |
| 20260831165935 | 58 | 302 | 3.5 | 13.0 | 0.00 | 0.00 | 0.00 | 85 | 1014.5 |
| 20260831165419 | 58 | 273 | 7.0 | 13.0 | 0.00 | 0.00 | 0.00 | 85 | 1014.5 |
| 20260831164921 | 58 | 222 | 6.1 | 11.3 | 0.00 | 0.00 | 0.00 | 85 | 1014.4 |
| 20260831164423 | 58 | 254 | 7.0 | 10.4 | 0.00 | 0.00 | 0.00 | 85 | 1014.5 |
| 20260831163943 | 58 | 224 | 5.2 | 10.4 | 0.00 | 0.00 | 0.00 | 85 | 1014.4 |
| 20260831163445 | 58 | 239 | 3.5 | 8.7 | 0.00 | 0.00 | 0.00 | 86 | 1014.4 |
| 20260831162930 | 58 | 317 | 3.5 | 11.3 | 0.00 | 0.00 | 0.00 | 86 | 1014.4 |
| 20260831162434 | 58 | 243 | 6.1 | 11.3 | 0.00 | 0.00 | 0.00 | 86 | 1014.3 |
| 20260831161918 | 58 | 282 | 6.1 | 11.3 | 0.00 | 0.00 | 0.00 | 86 | 1014.3 |
| 20260831161424 | 58 | 45 | 3.5 | 8.7 | 0.00 | 0.00 | 0.00 | 86 | 1014.1 |
| 20260831160927 | 58 | 218 | 5.2 | 8.7 | 0.00 | 0.00 | 0.00 | 86 | 1014.0 |
| 20260831160429 | 58 | 284 | 2.6 | 7.8 | 0.00 | 0.00 | 0.00 | 86 | 1014.0 |
| 20260831155935 | 58 | 27 | 1.7 | 11.3 | 0.00 | 0.00 | 0.00 | 86 | 1014.0 |
| 20260831155420 | 58 | 324 | 2.6 | 11.3 | 0.00 | 0.00 | 0.00 | 86 | 1014.0 |
| 20260831154924 | 58 | 188 | 0.9 | 2.6 | 0.00 | 0.00 | 0.00 | 86 | 1014.1 |
| 20260831154427 | 58 | 323 | 1.7 | 7.0 | 0.00 | 0.00 | 0.00 | 86 | 1014.0 |
| 20260831153930 | 58 | 234 | 2.6 | 7.8 | 0.00 | 0.00 | 0.00 | 86 | 1014.1 |
| 20260831153430 | 58 | 123 | 3.5 | 11.3 | 0.00 | 0.00 | 0.00 | 86 | 1014.1 |
| 20260831152935 | 58 | 196 | 5.2 | 11.3 | 0.00 | 0.00 | 0.00 | 86 | 1014.0 |
| 20260831152420 | 58 | 239 | 3.5 | 10.4 | 0.00 | 0.00 | 0.00 | 86 | 1014.0 |
| 20260831151921 | 58 | 278 | 4.3 | 11.3 | 0.00 | 0.00 | 0.00 | 85 | 1014.0 |
| 20260831151425 | 58 | 207 | 4.3 | 11.3 | 0.00 | 0.00 | 0.00 | 85 | 1014.0 |
| 20260831150932 | 58 | 280 | 6.1 | 10.4 | 0.00 | 0.00 | 0.00 | 85 | 1014.0 |
| 20260831150433 | 58 | 263 | 4.3 | 10.4 | 0.00 | 0.00 | 0.00 | 85 | 1014.0 |
| 20260831145932 | 58 | 360 | 2.6 | 7.8 | 0.00 | 0.00 | 0.00 | 85 | 1014.0 |
| 20260831145418 | 58 | 240 | 3.5 | 10.4 | 0.00 | 0.00 | 0.00 | 85 | 1013.9 |
| 20260831144922 | 58 | 196 | 4.3 | 10.4 | 0.00 | 0.00 | 0.00 | 85 | 1013.9 |
| 20260831144454 | 58 | 271 | 2.6 | 9.6 | 0.00 | 0.00 | 0.00 | 85 | 1013.8 |
| 20260831143918 | 58 | 283 | 6.1 | 9.6 | 0.00 | 0.00 | 0.00 | 85 | 1013.7 |
| 20260831143422 | 58 | 214 | 3.5 | 6.1 | 0.00 | 0.00 | 0.00 | 85 | 1013.7 |
| 20260831142926 | 58 | 217 | 2.6 | 5.2 | 0.00 | 0.00 | 0.00 | 85 | 1013.5 |
| 20260831142428 | 58 | 206 | 1.7 | 7.0 | 0.00 | 0.00 | 0.00 | 85 | 1013.6 |
| 20260831141933 | 58 | 268 | 2.6 | 8.7 | 0.00 | 0.00 | 0.00 | 85 | 1013.5 |
| 20260831141418 | 58 | 237 | 3.5 | 8.7 | 0.00 | 0.00 | 0.00 | 85 | 1013.3 |
| 20260831140923 | 58 | 240 | 2.6 | 6.1 | 0.00 | 0.00 | 0.00 | 85 | 1013.2 |
| 20260831140426 | 57 | 139 | 1.7 | 8.7 | 0.00 | 0.00 | 0.00 | 85 | 1013.1 |
| 20260831135931 | 58 | 261 | 3.5 | 8.7 | 0.00 | 0.00 | 0.00 | 85 | 1013.2 |
| 20260831135420 | 58 | 252 | 3.5 | 8.7 | 0.00 | 0.00 | 0.00 | 85 | 1013.1 |
| 20260831134927 | 58 | 254 | 3.5 | 8.7 | 0.00 | 0.00 | 0.00 | 85 | 1013.1 |
| 20260831134428 | 58 | 263 | 4.3 | 11.3 | 0.00 | 0.00 | 0.00 | 85 | 1013.1 |
| 20260831133936 | 58 | 210 | 7.0 | 11.3 | 0.00 | 0.00 | 0.00 | 84 | 1013.0 |
| 20260831133418 | 58 | 261 | 1.7 | 9.6 | 0.00 | 0.00 | 0.00 | 84 | 1013.0 |
| 20260831132925 | 58 | 280 | 4.3 | 10.4 | 0.00 | 0.00 | 0.00 | 84 | 1012.9 |
| 20260831132457 | 58 | 254 | 5.2 | 10.4 | 0.00 | 0.00 | 0.00 | 84 | 1012.9 |
| 20260831131923 | 58 | 250 | 5.2 | 11.3 | 0.00 | 0.00 | 0.00 | 84 | 1013.1 |
| 20260831131427 | 58 | 216 | 5.2 | 11.3 | 0.00 | 0.00 | 0.00 | 84 | 1013.1 |
| 20260831130928 | 58 | 273 | 3.5 | 10.4 | 0.00 | 0.00 | 0.00 | 84 | 1012.9 |
| 20260831130432 | 58 | 216 | 2.6 | 10.4 | 0.00 | 0.00 | 0.00 | 84 | 1012.9 |
| 20260831125925 | 58 | 275 | 3.5 | 10.4 | 0.00 | 0.00 | 0.00 | 84 | 1012.9 |
| 20260831125427 | 58 | 270 | 5.2 | 10.4 | 0.00 | 0.00 | 0.00 | 84 | 1012.8 |
| 20260831124932 | 58 | 239 | 4.3 | 11.3 | 0.00 | 0.00 | 0.00 | 84 | 1012.8 |
| 20260831124437 | 58 | 254 | 5.2 | 12.2 | 0.00 | 0.00 | 0.00 | 83 | 1012.8 |
| 20260831123923 | 58 | 227 | 6.1 | 12.2 | 0.00 | 0.00 | 0.00 | 83 | 1012.9 |
| 20260831123422 | 58 | 220 | 3.5 | 11.3 | 0.00 | 0.00 | 0.00 | 83 | 1012.8 |
| 20260831122927 | 58 | 225 | 5.2 | 11.3 | 0.00 | 0.00 | 0.00 | 83 | 1012.8 |
| 20260831122432 | 58 | 268 | 1.7 | 7.8 | 0.00 | 0.00 | 0.00 | 83 | 1012.8 |
| 20260831121936 | 58 | 99 | 3.5 | 7.8 | 0.00 | 0.00 | 0.00 | 83 | 1012.8 |
| 20260831121423 | 58 | 228 | 1.7 | 7.8 | 0.00 | 0.00 | 0.00 | 83 | 1012.8 |
| 20260831120928 | 58 | 347 | 2.6 | 7.8 | 0.00 | 0.00 | 0.00 | 83 | 1012.8 |
| 20260831120422 | 58 | 208 | 4.3 | 7.0 | 0.00 | 0.00 | 0.00 | 83 | 1012.7 |
| 20260831115922 | 58 | 301 | 2.6 | 7.8 | 0.00 | 0.00 | 0.00 | 83 | 1012.6 |
| 20260831115456 | 58 | 320 | 2.6 | 8.7 | 0.00 | 0.00 | 0.00 | 83 | 1012.6 |
| 20260831114920 | 58 | 299 | 5.2 | 8.7 | 0.00 | 0.00 | 0.00 | 83 | 1012.6 |
| 20260831114452 | 58 | 239 | 0.9 | 7.0 | 0.00 | 0.00 | 0.00 | 83 | 1012.7 |
| 20260831113936 | 58 | 313 | 3.5 | 7.0 | 0.00 | 0.00 | 0.00 | 83 | 1012.7 |
| 20260831113421 | 58 | 313 | 0.9 | 9.6 | 0.00 | 0.00 | 0.00 | 83 | 1012.6 |
| 20260831112923 | 58 | 256 | 1.7 | 8.7 | 0.00 | 0.00 | 0.00 | 83 | 1012.6 |
| 20260831112426 | 58 | 88 | 0.9 | 4.3 | 0.00 | 0.00 | 0.00 | 83 | 1012.7 |
| 20260831111931 | 58 | 276 | 1.7 | 6.1 | 0.00 | 0.00 | 0.00 | 83 | 1012.6 |
| 20260831111435 | 58 | 239 | 0.9 | 7.8 | 0.00 | 0.00 | 0.00 | 83 | 1012.7 |
| 20260831110938 | 58 | 31 | 2.6 | 7.8 | 0.00 | 0.00 | 0.00 | 83 | 1012.7 |
| 20260831110440 | 58 | 185 | 4.3 | 7.8 | 0.00 | 0.00 | 0.00 | 83 | 1012.7 |
| 20260831105925 | 58 | 57 | 1.7 | 6.1 | 0.00 | 0.00 | 0.00 | 83 | 1012.7 |
| 20260831105426 | 58 | 78 | 0.9 | 6.1 | 0.00 | 0.00 | 0.00 | 83 | 1012.6 |
| 20260831104932 | 58 | 207 | 2.6 | 8.7 | 0.00 | 0.00 | 0.00 | 83 | 1012.6 |
| 20260831104439 | 58 | 230 | 3.5 | 8.7 | 0.00 | 0.00 | 0.00 | 83 | 1012.5 |
| 20260831103925 | 58 | 239 | 0.9 | 7.0 | 0.00 | 0.00 | 0.00 | 83 | 1012.6 |
| 20260831103430 | 58 | 299 | 3.5 | 8.7 | 0.00 | 0.00 | 0.00 | 83 | 1012.5 |
| 20260831102936 | 58 | 217 | 3.5 | 11.3 | 0.00 | 0.00 | 0.00 | 83 | 1012.5 |
| 20260831102422 | 58 | 222 | 6.1 | 12.2 | 0.00 | 0.00 | 0.00 | 83 | 1012.5 |
| 20260831101922 | 58 | 202 | 4.3 | 12.2 | 0.00 | 0.00 | 0.00 | 83 | 1012.5 |
| 20260831101428 | 58 | 201 | 7.0 | 12.2 | 0.00 | 0.00 | 0.00 | 83 | 1012.6 |
| 20260831100935 | 58 | 239 | 5.2 | 11.3 | 0.00 | 0.00 | 0.00 | 83 | 1012.5 |
| 20260831100436 | 58 | 177 | 3.5 | 13.0 | 0.00 | 0.00 | 0.00 | 83 | 1012.4 |
| 20260831095919 | 58 | 225 | 5.2 | 13.0 | 0.00 | 0.00 | 0.00 | 83 | 1012.4 |
| 20260831095424 | 58 | 198 | 5.2 | 10.4 | 0.00 | 0.00 | 0.00 | 83 | 1012.4 |
| 20260831094930 | 58 | 229 | 5.2 | 10.4 | 0.00 | 0.00 | 0.00 | 83 | 1012.4 |
| 20260831094458 | 58 | 251 | 3.5 | 8.7 | 0.00 | 0.00 | 0.00 | 83 | 1012.4 |
| 20260831093953 | 58 | 201 | 2.6 | 8.7 | 0.00 | 0.00 | 0.00 | 83 | 1012.4 |
| 20260831093436 | 58 | 188 | 4.3 | 8.7 | 0.00 | 0.00 | 0.00 | 83 | 1012.4 |
| 20260831092941 | 58 | 239 | 3.5 | 8.7 | 0.00 | 0.00 | 0.00 | 83 | 1012.4 |
| 20260831092456 | 58 | 226 | 5.2 | 8.7 | 0.00 | 0.00 | 0.00 | 83 | 1012.5 |
| 20260831091921 | 58 | 240 | 2.6 | 11.3 | 0.00 | 0.00 | 0.00 | 83 | 1012.5 |
| 20260831091422 | 58 | 177 | 2.6 | 11.3 | 0.00 | 0.00 | 0.00 | 83 | 1012.4 |
| 20260831090956 | 58 | 301 | 2.6 | 10.4 | 0.00 | 0.00 | 0.00 | 83 | 1012.5 |
| 20260831090437 | 58 | 187 | 2.6 | 10.4 | 0.00 | 0.00 | 0.00 | 83 | 1012.4 |
| 20260831085919 | 58 | 326 | 4.3 | 8.7 | 0.00 | 0.00 | 0.00 | 83 | 1012.4 |
| 20260831085424 | 58 | 215 | 3.5 | 10.4 | 0.00 | 0.00 | 0.00 | 83 | 1012.4 |
| 20260831084927 | 58 | 237 | 4.3 | 12.2 | 0.00 | 0.00 | 0.00 | 83 | 1012.5 |
| 20260831084431 | 58 | 232 | 4.3 | 12.2 | 0.00 | 0.00 | 0.00 | 83 | 1012.5 |
| 20260831083933 | 58 | 233 | 4.3 | 11.3 | 0.00 | 0.00 | 0.00 | 83 | 1012.5 |
| 20260831083435 | 58 | 200 | 5.2 | 10.4 | 0.00 | 0.00 | 0.00 | 83 | 1012.6 |
| 20260831082939 | 58 | 214 | 3.5 | 9.6 | 0.00 | 0.00 | 0.00 | 83 | 1012.6 |
| 20260831082454 | 58 | 210 | 5.2 | 12.2 | 0.00 | 0.00 | 0.00 | 83 | 1012.6 |
| 20260831081919 | 58 | 222 | 1.7 | 9.6 | 0.00 | 0.00 | 0.00 | 83 | 1012.7 |
| 20260831081423 | 58 | 218 | 2.6 | 9.6 | 0.00 | 0.00 | 0.00 | 83 | 1012.7 |
| 20260831080927 | 58 | 217 | 5.2 | 9.6 | 0.00 | 0.00 | 0.00 | 83 | 1012.7 |
| 20260831080426 | 58 | 251 | 1.7 | 5.2 | 0.00 | 0.00 | 0.00 | 84 | 1012.6 |
| 20260831075932 | 58 | 257 | 2.6 | 9.6 | 0.00 | 0.00 | 0.00 | 84 | 1012.8 |
| 20260831075436 | 58 | 251 | 4.3 | 9.6 | 0.00 | 0.00 | 0.00 | 84 | 1012.9 |
| 20260831074919 | 58 | 233 | 1.7 | 5.2 | 0.00 | 0.00 | 0.00 | 83 | 1012.9 |
| 20260831074423 | 58 | 230 | 2.6 | 5.2 | 0.00 | 0.00 | 0.00 | 83 | 1012.8 |
| 20260831073929 | 58 | 222 | 2.6 | 7.8 | 0.00 | 0.00 | 0.00 | 83 | 1012.7 |
| 20260831073435 | 58 | 256 | 5.2 | 9.6 | 0.00 | 0.00 | 0.00 | 83 | 1012.7 |
| 20260831072934 | 58 | 177 | 2.6 | 9.6 | 0.00 | 0.00 | 0.00 | 83 | 1012.7 |
| 20260831072437 | 58 | 235 | 2.6 | 7.0 | 0.00 | 0.00 | 0.00 | 83 | 1012.6 |
| 20260831071921 | 58 | 218 | 2.6 | 6.1 | 0.00 | 0.00 | 0.00 | 84 | 1012.6 |
| 20260831071435 | 58 | 313 | 2.6 | 7.8 | 0.00 | 0.00 | 0.00 | 84 | 1012.7 |
| 20260831070942 | 58 | 215 | 4.3 | 7.8 | 0.00 | 0.00 | 0.00 | 84 | 1012.7 |
| 20260831070454 | 58 | 151 | 2.6 | 9.6 | 0.00 | 0.00 | 0.00 | 84 | 1012.8 |
| 20260831065922 | 58 | 225 | 6.1 | 9.6 | 0.00 | 0.00 | 0.00 | 84 | 1012.7 |
| 20260831065427 | 58 | 58 | 0.9 | 8.7 | 0.00 | 0.00 | 0.00 | 84 | 1012.8 |
| 20260831064932 | 58 | 222 | 1.7 | 8.7 | 0.00 | 0.00 | 0.00 | 84 | 1012.8 |
| 20260831064436 | 58 | 320 | 1.7 | 4.3 | 0.00 | 0.00 | 0.00 | 84 | 1012.8 |
| 20260831063920 | 58 | 228 | 1.7 | 7.0 | 0.00 | 0.00 | 0.00 | 84 | 1012.7 |
| 20260831063444 | 58 | 273 | 2.6 | 7.0 | 0.00 | 0.00 | 0.00 | 84 | 1012.7 |
| 20260831062929 | 58 | 256 | 1.7 | 5.2 | 0.00 | 0.00 | 0.00 | 84 | 1012.7 |
| 20260831062432 | 58 | 101 | 1.7 | 4.3 | 0.00 | 0.00 | 0.00 | 84 | 1012.8 |
| 20260831061936 | 58 | 130 | 1.7 | 4.3 | 0.00 | 0.00 | 0.00 | 84 | 1012.7 |
| 20260831061423 | 58 | 107 | 1.7 | 5.2 | 0.00 | 0.00 | 0.00 | 84 | 1012.8 |
| 20260831060958 | 58 | 105 | 2.6 | 6.1 | 0.00 | 0.00 | 0.00 | 84 | 1012.8 |
| 20260831060419 | 58 | 219 | 1.7 | 7.0 | 0.00 | 0.00 | 0.00 | 84 | 1012.8 |
| 20260831055924 | 58 | 83 | 2.6 | 4.3 | 0.00 | 0.00 | 0.00 | 84 | 1012.8 |
| 20260831055430 | 58 | 83 | 2.6 | 4.3 | 0.00 | 0.00 | 0.00 | 84 | 1012.7 |
| 20260831054930 | 58 | 67 | 1.7 | 4.3 | 0.00 | 0.00 | 0.00 | 84 | 1012.6 |
| 20260831054417 | 58 | 88 | 1.7 | 7.8 | 0.00 | 0.00 | 0.00 | 84 | 1012.6 |
| 20260831053921 | 58 | 205 | 2.6 | 7.8 | 0.00 | 0.00 | 0.00 | 84 | 1012.6 |
| 20260831053426 | 58 | 351 | 2.6 | 7.8 | 0.00 | 0.00 | 0.00 | 84 | 1012.6 |
| 20260831052932 | 58 | 107 | 0.9 | 4.3 | 0.00 | 0.00 | 0.00 | 84 | 1012.7 |
| 20260831052418 | 58 | 163 | 0.9 | 6.1 | 0.00 | 0.00 | 0.00 | 84 | 1012.6 |
| 20260831051923 | 58 | 134 | 2.6 | 6.1 | 0.00 | 0.00 | 0.00 | 84 | 1012.6 |
| 20260831051422 | 58 | 177 | 1.7 | 4.3 | 0.00 | 0.00 | 0.00 | 84 | 1012.7 |
| 20260831050929 | 58 | 88 | 2.6 | 4.3 | 0.00 | 0.00 | 0.00 | 84 | 1012.7 |
| 20260831050430 | 58 | 346 | 2.6 | 4.3 | 0.00 | 0.00 | 0.00 | 84 | 1012.7 |
| 20260831045934 | 58 | 75 | 3.5 | 7.0 | 0.00 | 0.00 | 0.00 | 84 | 1012.7 |
| 20260831045418 | 58 | 123 | 0.9 | 7.8 | 0.00 | 0.00 | 0.00 | 84 | 1012.6 |
| 20260831044920 | 58 | 162 | 3.5 | 7.8 | 0.00 | 0.00 | 0.00 | 84 | 1012.8 |
| 20260831044426 | 58 | 160 | 1.7 | 7.8 | 0.00 | 0.00 | 0.00 | 84 | 1012.7 |
| 20260831043930 | 58 | 163 | 3.5 | 10.4 | 0.00 | 0.00 | 0.00 | 84 | 1012.7 |
| 20260831043435 | 58 | 157 | 4.3 | 10.4 | 0.00 | 0.00 | 0.00 | 84 | 1012.7 |
| 20260831042938 | 58 | 5 | 1.7 | 7.0 | 0.00 | 0.00 | 0.00 | 84 | 1012.7 |
| 20260831042420 | 58 | 50 | 3.5 | 7.0 | 0.00 | 0.00 | 0.00 | 84 | 1012.7 |
| 20260831041926 | 58 | 82 | 3.5 | 7.0 | 0.00 | 0.00 | 0.00 | 85 | 1012.6 |
| 20260831041433 | 58 | 62 | 2.6 | 5.2 | 0.00 | 0.00 | 0.00 | 85 | 1012.7 |
| 20260831040938 | 58 | 69 | 2.6 | 7.0 | 0.00 | 0.00 | 0.00 | 85 | 1012.6 |
| 20260831040448 | 58 | 88 | 5.2 | 7.0 | 0.00 | 0.00 | 0.00 | 85 | 1012.5 |
| 20260831035959 | 58 | 52 | 4.3 | 6.1 | 0.00 | 0.00 | 0.00 | 85 | 1012.5 |
| 20260831035422 | 58 | 74 | 4.3 | 7.0 | 0.00 | 0.00 | 0.00 | 85 | 1012.3 |
| 20260831034927 | 58 | 106 | 3.5 | 7.0 | 0.00 | 0.00 | 0.00 | 85 | 1012.3 |
| 20260831034433 | 58 | 64 | 3.5 | 6.1 | 0.00 | 0.00 | 0.00 | 85 | 1012.3 |
| 20260831033919 | 58 | 27 | 2.6 | 6.1 | 0.00 | 0.00 | 0.00 | 85 | 1012.3 |
| 20260831033423 | 58 | 292 | 1.7 | 4.3 | 0.00 | 0.00 | 0.00 | 85 | 1012.4 |
| 20260831032922 | 58 | 62 | 0.9 | 7.0 | 0.00 | 0.00 | 0.00 | 85 | 1012.3 |
| 20260831032425 | 58 | 62 | 4.3 | 8.7 | 0.00 | 0.00 | 0.00 | 85 | 1012.2 |
| 20260831031938 | 58 | 83 | 5.2 | 8.7 | 0.00 | 0.00 | 0.00 | 85 | 1012.1 |
| 20260831031423 | 57 | 67 | 3.5 | 7.8 | 0.00 | 0.00 | 0.00 | 85 | 1012.1 |
| 20260831030929 | 57 | 78 | 4.3 | 7.0 | 0.00 | 0.00 | 0.00 | 85 | 1012.0 |
| 20260831030434 | 57 | 151 | 3.5 | 9.6 | 0.00 | 0.00 | 0.00 | 85 | 1011.9 |
| 20260831025933 | 57 | 322 | 2.6 | 13.0 | 0.00 | 0.00 | 0.00 | 85 | 1011.8 |
| 20260831025418 | 57 | 294 | 5.2 | 13.0 | 0.00 | 0.00 | 0.00 | 85 | 1011.8 |
| 20260831024924 | 57 | 249 | 4.3 | 11.3 | 0.00 | 0.00 | 0.00 | 85 | 1011.7 |
| 20260831024427 | 57 | 12 | 3.5 | 11.3 | 0.00 | 0.00 | 0.00 | 85 | 1011.7 |
| 20260831023933 | 57 | 320 | 5.2 | 10.4 | 0.00 | 0.00 | 0.00 | 85 | 1011.6 |
| 20260831023435 | 57 | 261 | 2.6 | 12.2 | 0.00 | 0.00 | 0.00 | 85 | 1011.6 |
| 20260831022919 | 57 | 214 | 4.3 | 9.6 | 0.00 | 0.00 | 0.00 | 84 | 1011.5 |
| 20260831022438 | 57 | 194 | 3.5 | 9.6 | 0.00 | 0.00 | 0.00 | 84 | 1011.4 |
| 20260831021925 | 57 | 192 | 2.6 | 13.0 | 0.00 | 0.00 | 0.00 | 84 | 1011.5 |
| 20260831021431 | 57 | 222 | 6.1 | 16.5 | 0.00 | 0.00 | 0.00 | 83 | 1011.6 |
| 20260831020936 | 57 | 301 | 7.0 | 16.5 | 0.00 | 0.00 | 0.00 | 83 | 1011.5 |
| 20260831020421 | 58 | 227 | 5.2 | 12.2 | 0.00 | 0.00 | 0.00 | 83 | 1011.6 |
| 20260831015946 | 58 | 254 | 5.2 | 13.0 | 0.00 | 0.00 | 0.00 | 82 | 1011.6 |
| 20260831015430 | 58 | 290 | 6.1 | 13.9 | 0.00 | 0.00 | 0.00 | 82 | 1011.6 |
| 20260831014932 | 58 | 196 | 4.3 | 14.8 | 0.00 | 0.00 | 0.00 | 81 | 1011.7 |
| 20260831014437 | 59 | 112 | 5.2 | 14.8 | 0.00 | 0.00 | 0.00 | 81 | 1011.7 |
| 20260831013942 | 59 | 224 | 6.1 | 13.0 | 0.00 | 0.00 | 0.00 | 80 | 1011.6 |
| 20260831013423 | 60 | 62 | 5.2 | 11.3 | 0.00 | 0.00 | 0.00 | 80 | 1011.7 |
| 20260831012927 | 60 | 319 | 3.5 | 7.0 | 0.00 | 0.00 | 0.00 | 80 | 1011.7 |
| 20260831012434 | 60 | 57 | 0.9 | 9.6 | 0.00 | 0.00 | 0.00 | 80 | 1011.7 |
| 20260831011933 | 60 | 83 | 1.7 | 9.6 | 0.00 | 0.00 | 0.00 | 79 | 1011.8 |
| 20260831011437 | 60 | 155 | 3.5 | 8.7 | 0.00 | 0.00 | 0.00 | 79 | 1012.0 |
| 20260831010920 | 60 | 327 | 4.3 | 9.6 | 0.00 | 0.00 | 0.00 | 79 | 1011.9 |
| 20260831010446 | 60 | 62 | 3.5 | 9.6 | 0.00 | 0.00 | 0.00 | 79 | 1011.9 |
| 20260831005927 | 60 | 59 | 4.3 | 8.7 | 0.00 | 0.00 | 0.00 | 78 | 1012.0 |
| 20260831005434 | 61 | 27 | 3.5 | 9.6 | 0.00 | 0.00 | 0.00 | 78 | 1012.1 |
| 20260831004921 | 61 | 163 | 6.1 | 10.4 | 0.00 | 0.00 | 0.00 | 78 | 1012.0 |
| 20260831004423 | 61 | 78 | 1.7 | 10.4 | 0.00 | 0.00 | 0.00 | 78 | 1012.1 |
| 20260831003926 | 61 | 31 | 4.3 | 9.6 | 0.00 | 0.00 | 0.00 | 78 | 1012.2 |
| 20260831003459 | 61 | 71 | 1.7 | 11.3 | 0.00 | 0.00 | 0.00 | 77 | 1012.0 |
| 20260831002951 | 61 | 313 | 4.3 | 11.3 | 0.00 | 0.00 | 0.00 | 77 | 1012.0 |
| 20260831002434 | 62 | 124 | 3.5 | 10.4 | 0.00 | 0.00 | 0.00 | 77 | 1012.0 |
| 20260831001938 | 62 | 66 | 4.3 | 12.2 | 0.00 | 0.00 | 0.00 | 76 | 1012.1 |
| 20260831001446 | 62 | 80 | 4.3 | 15.6 | 0.00 | 0.00 | 0.00 | 76 | 1012.1 |
| 20260831000933 | 62 | 277 | 2.6 | 15.6 | 0.00 | 0.00 | 0.00 | 77 | 1012.2 |
| 20260831000436 | 61 | 125 | 4.3 | 13.0 | 0.00 | 0.00 | 0.00 | 77 | 1012.3 |
| 20260830235918 | 61 | 244 | 5.2 | 11.3 | 0.00 | 0.00 | 0.00 | 76 | 1012.3 |
| 20260830235424 | 62 | 261 | 5.2 | 11.3 | 0.00 | 0.00 | 0.00 | 76 | 1012.4 |
| 20260830234927 | 62 | 172 | 3.5 | 11.3 | 0.00 | 0.00 | 0.00 | 75 | 1012.4 |
| 20260830234433 | 63 | 245 | 5.2 | 11.3 | 0.00 | 0.00 | 0.00 | 74 | 1012.3 |
| 20260830233933 | 63 | 8 | 3.5 | 9.6 | 0.00 | 0.00 | 0.00 | 74 | 1012.4 |
| 20260830233435 | 63 | 123 | 4.3 | 8.7 | 0.00 | 0.00 | 0.00 | 74 | 1012.5 |
| 20260830232921 | 63 | 205 | 3.5 | 8.7 | 0.00 | 0.00 | 0.00 | 74 | 1012.5 |
| 20260830232426 | 63 | 304 | 3.5 | 8.7 | 0.00 | 0.00 | 0.00 | 74 | 1012.5 |
| 20260830231929 | 63 | 17 | 4.3 | 14.8 | 0.00 | 0.00 | 0.00 | 75 | 1012.4 |
| 20260830231434 | 63 | 327 | 6.1 | 14.8 | 0.00 | 0.00 | 0.00 | 75 | 1012.5 |
| 20260830230918 | 63 | 116 | 4.3 | 12.2 | 0.00 | 0.00 | 0.00 | 75 | 1012.4 |
| 20260830230423 | 63 | 217 | 5.2 | 16.5 | 0.00 | 0.00 | 0.00 | 75 | 1012.5 |
| 20260830225921 | 63 | 209 | 7.0 | 16.5 | 0.00 | 0.00 | 0.00 | 74 | 1012.5 |
| 20260830225425 | 63 | 283 | 5.2 | 13.9 | 0.00 | 0.00 | 0.00 | 74 | 1012.6 |
| 20260830224931 | 63 | 197 | 5.2 | 13.9 | 0.00 | 0.00 | 0.00 | 74 | 1012.7 |
| 20260830224435 | 63 | 302 | 6.1 | 13.0 | 0.00 | 0.00 | 0.00 | 74 | 1012.7 |
| 20260830223919 | 63 | 258 | 6.1 | 13.9 | 0.00 | 0.00 | 0.00 | 74 | 1012.7 |
| 20260830223419 | 63 | 235 | 5.2 | 13.9 | 0.00 | 0.00 | 0.00 | 74 | 1012.7 |
| 20260830222923 | 63 | 222 | 6.1 | 14.8 | 0.00 | 0.00 | 0.00 | 74 | 1012.8 |
| 20260830222440 | 63 | 231 | 7.0 | 14.8 | 0.00 | 0.00 | 0.00 | 75 | 1012.8 |
| 20260830221923 | 62 | 195 | 7.0 | 18.2 | 0.00 | 0.00 | 0.00 | 76 | 1013.0 |
| 20260830221428 | 62 | 216 | 8.7 | 18.2 | 0.00 | 0.00 | 0.00 | 76 | 1013.1 |
| 20260830220932 | 62 | 209 | 7.0 | 18.2 | 0.00 | 0.00 | 0.00 | 76 | 1013.1 |